FENGYUN 4B

Last updated on Wed Sep 17 2025 00:02:50 GMT+0000 (Coordinated Universal Time)

1 48808U 21047A 25259.65681749 -.00000349 00000+0 00000+0 0 9996 2 48808 0.2257 82.6561 0004841 255.9762 358.3858 1.00270416 15835
UTC large
Height (km)
Speed (km/s)
/
Latitude / Longitude
Inclination (degrees)
Orbital Period (minutes)
Azimuth
Elevation
Range (km)
Doppler Factor

Next 0 passes for location: London (51.5072 / 0.1276)

Sorry there are no passes over London.